| time (UTC) | temp F | wind direction | speed knots | gust knots | rain 1hr in | rain 24hr in | rain mn in | humidity % | barometer mb |
| 20260903115524 | 72 | 180 | 0.9 | 2.6 | 0.00 | 2.00 | 0.00 | 85 | 1011.6 |
| 20260903114520 | 71 | 248 | 1.7 | 2.6 | 0.00 | 2.00 | 0.00 | 86 | 1011.6 |
| 20260903113520 | 71 | 158 | 2.6 | 6.1 | 0.00 | 2.00 | 0.00 | 86 | 1011.5 |
| 20260903112520 | 71 | 135 | 0.9 | 1.7 | 0.00 | 2.00 | 0.00 | 86 | 1011.3 |
| 20260903111520 | 71 | 158 | 1.7 | 3.5 | 0.00 | 2.00 | 0.00 | 87 | 1011.1 |
| 20260903110520 | 71 | 158 | 0.9 | 1.7 | 0.00 | 2.00 | 0.00 | 87 | 1011.1 |
| 20260903105520 | 70 | 0.0 | 1.7 | 0.00 | 2.00 | 0.00 | 87 | 1010.9 | |
| 20260903104519 | 70 | 0.0 | 1.7 | 0.00 | 2.00 | 0.00 | 87 | 1011.0 | |
| 20260903103519 | 70 | 158 | 1.7 | 3.5 | 0.00 | 2.00 | 0.00 | 88 | 1011.1 |
| 20260903102522 | 70 | 135 | 0.9 | 2.6 | 0.00 | 2.00 | 0.00 | 88 | 1011.0 |
| 20260903101522 | 70 | 158 | 0.9 | 2.6 | 0.00 | 2.00 | 0.00 | 88 | 1010.9 |
| 20260903100541 | 70 | 135 | 0.9 | 1.7 | 0.00 | 2.00 | 0.00 | 88 | 1010.8 |
| 20260903095521 | 70 | 158 | 0.9 | 1.7 | 0.00 | 2.00 | 0.00 | 88 | 1010.9 |
| 20260903094522 | 70 | 158 | 0.9 | 2.6 | 0.00 | 2.00 | 0.00 | 88 | 1010.9 |
| 20260903093521 | 70 | 158 | 1.7 | 3.5 | 0.00 | 2.00 | 0.00 | 88 | 1011.0 |
| 20260903092521 | 70 | 0.0 | 0.0 | 0.00 | 2.00 | 0.00 | 88 | 1011.0 | |
| 20260903091522 | 70 | 0.0 | 1.7 | 0.00 | 2.00 | 0.00 | 88 | 1010.9 | |
| 20260903090521 | 70 | 0.0 | 0.9 | 0.00 | 2.00 | 0.00 | 88 | 1010.9 | |
| 20260903085521 | 70 | 158 | 0.9 | 3.5 | 0.00 | 2.00 | 0.00 | 88 | 1010.7 |
| 20260903084521 | 70 | 0.0 | 2.6 | 0.00 | 2.00 | 0.00 | 88 | 1010.8 | |
| 20260903083521 | 70 | 135 | 0.9 | 2.6 | 0.00 | 2.00 | 0.00 | 87 | 1010.8 |
| 20260903082521 | 71 | 135 | 0.9 | 2.6 | 0.00 | 2.00 | 0.00 | 86 | 1010.9 |
| 20260903081541 | 71 | 180 | 2.6 | 6.1 | 0.00 | 2.00 | 0.00 | 86 | 1010.7 |
| 20260903080521 | 70 | 0.0 | 0.9 | 0.00 | 2.00 | 0.00 | 87 | 1010.9 | |
| 20260903075601 | 70 | 0.0 | 2.6 | 0.00 | 2.00 | 0.00 | 87 | 1011.0 | |
| 20260903074521 | 70 | 0.0 | 0.9 | 0.00 | 2.00 | 0.00 | 87 | 1010.9 | |
| 20260903073521 | 70 | 158 | 0.9 | 1.7 | 0.00 | 2.00 | 0.00 | 88 | 1011.1 |
| 20260903072541 | 70 | 225 | 1.7 | 3.5 | 0.00 | 2.00 | 0.00 | 88 | 1011.2 |
| 20260903071521 | 70 | 158 | 0.9 | 2.6 | 0.00 | 2.00 | 0.00 | 89 | 1011.2 |
| 20260903070520 | 69 | 158 | 0.9 | 2.6 | 0.00 | 2.00 | 0.00 | 89 | 1011.3 |
| 20260903065520 | 69 | 135 | 0.9 | 1.7 | 0.00 | 2.00 | 0.00 | 90 | 1011.3 |
| 20260903064521 | 69 | 180 | 2.6 | 4.3 | 0.00 | 2.00 | 0.00 | 90 | 1011.1 |
| 20260903063541 | 69 | 158 | 0.9 | 2.6 | 0.00 | 2.00 | 0.00 | 90 | 1011.1 |
| 20260903062522 | 69 | 0.0 | 0.0 | 0.00 | 2.00 | 0.00 | 90 | 1011.0 | |
| 20260903061520 | 69 | 0.0 | 1.7 | 0.00 | 2.00 | 0.00 | 90 | 1011.0 | |
| 20260903060521 | 69 | 0.0 | 0.0 | 0.00 | 2.00 | 0.00 | 90 | 1011.1 | |
| 20260903055521 | 69 | 158 | 0.9 | 2.6 | 0.00 | 2.00 | 0.00 | 90 | 1010.9 |
| 20260903054520 | 69 | 158 | 1.7 | 4.3 | 0.00 | 2.00 | 0.00 | 90 | 1011.0 |
| 20260903053522 | 69 | 0.0 | 0.0 | 0.00 | 2.00 | 0.00 | 89 | 1011.0 | |
| 20260903052520 | 69 | 0.0 | 0.0 | 0.00 | 2.00 | 0.00 | 89 | 1010.9 | |
| 20260903051520 | 69 | 0.0 | 0.0 | 0.00 | 2.00 | 0.00 | 89 | 1010.9 | |
| 20260903050520 | 69 | 0.0 | 0.0 | 0.00 | 2.00 | 0.00 | 88 | 1010.7 | |
| 20260903045520 | 69 | 0.0 | 0.0 | 0.00 | 2.00 | 0.00 | 88 | 1010.9 | |
| 20260903044520 | 69 | 0.0 | 0.0 | 0.00 | 2.00 | 0.00 | 88 | 1010.7 | |
| 20260903043520 | 69 | 0.0 | 0.9 | 0.00 | 2.00 | 0.00 | 88 | 1010.5 | |
| 20260903042520 | 69 | 0.0 | 0.9 | 0.00 | 2.00 | 0.00 | 88 | 1010.7 | |
| 20260903041520 | 70 | 135 | 1.7 | 6.1 | 0.00 | 2.00 | 0.00 | 88 | 1010.9 |
| 20260903040520 | 70 | 158 | 1.7 | 3.5 | 0.00 | 2.00 | 0.00 | 88 | 1011.0 |
| 20260903035520 | 69 | 180 | 1.7 | 5.2 | 0.00 | 2.00 | 2.00 | 89 | 1011.5 |
| 20260903034520 | 69 | 180 | 1.7 | 7.8 | 0.00 | 2.00 | 2.00 | 89 | 1011.4 |
| 20260903033520 | 69 | 45 | 0.9 | 3.5 | 0.02 | 2.00 | 2.00 | 89 | 1011.4 |
| 20260903032520 | 69 | 0 | 0.9 | 1.7 | 0.02 | 2.00 | 2.00 | 89 | 1011.4 |
| 20260903031521 | 68 | 180 | 5.2 | 10.4 | 0.03 | 2.00 | 2.00 | 89 | 1010.5 |
| 20260903030520 | 68 | 158 | 8.7 | 15.6 | 0.03 | 2.00 | 2.00 | 89 | 1009.6 |
| 20260903025520 | 69 | 203 | 7.8 | 13.0 | 0.03 | 2.00 | 2.00 | 89 | 1009.8 |
| 20260903024540 | 69 | 180 | 6.1 | 10.4 | 0.05 | 2.00 | 2.00 | 89 | 1010.2 |
| 20260903023520 | 70 | 180 | 7.8 | 12.2 | 0.03 | 1.98 | 1.98 | 88 | 1010.3 |
| 20260903022520 | 70 | 180 | 6.1 | 11.3 | 0.03 | 1.98 | 1.98 | 88 | 1011.0 |
| 20260903021520 | 70 | 180 | 7.8 | 13.9 | 0.03 | 1.97 | 1.97 | 88 | 1010.9 |
| 20260903020600 | 71 | 180 | 9.6 | 20.0 | 0.06 | 1.97 | 1.97 | 87 | 1010.4 |
| 20260903015542 | 72 | 203 | 11.3 | 18.2 | 0.08 | 1.97 | 1.97 | 86 | 1011.2 |
| 20260903014520 | 73 | 203 | 6.1 | 12.2 | 0.07 | 1.95 | 1.95 | 88 | 1012.0 |
| 20260903013521 | 73 | 180 | 12.2 | 18.2 | 0.07 | 1.95 | 1.95 | 88 | 1011.6 |
| 20260903012520 | 73 | 158 | 12.2 | 16.5 | 0.07 | 1.95 | 1.95 | 88 | 1011.1 |
| 20260903011520 | 74 | 158 | 5.2 | 8.7 | 0.06 | 1.94 | 1.94 | 87 | 1011.7 |
| 20260903010520 | 74 | 180 | 3.5 | 7.0 | 0.03 | 1.91 | 1.91 | 85 | 1012.4 |
| 20260903005520 | 75 | 180 | 3.5 | 8.7 | 0.01 | 1.89 | 1.89 | 84 | 1012.9 |
| 20260903004522 | 75 | 180 | 6.1 | 10.4 | 0.00 | 1.88 | 1.88 | 83 | 1012.3 |
| 20260903003520 | 75 | 158 | 6.1 | 10.4 | 0.00 | 1.88 | 1.88 | 83 | 1011.4 |
| 20260903002520 | 75 | 180 | 6.1 | 13.0 | 0.00 | 1.88 | 1.88 | 83 | 1011.3 |
| 20260903001520 | 75 | 158 | 7.0 | 13.9 | 0.00 | 1.88 | 1.88 | 83 | 1011.1 |
| 20260903000519 | 75 | 180 | 11.3 | 20.0 | 0.00 | 1.88 | 1.88 | 83 | 1011.2 |
| 20260902235539 | 75 | 180 | 10.4 | 16.5 | 0.00 | 1.88 | 1.88 | 83 | 1010.7 |
| 20260902234521 | 75 | 158 | 9.6 | 15.6 | 0.00 | 1.88 | 1.88 | 83 | 1010.8 |
| 20260902233521 | 76 | 180 | 11.3 | 20.0 | 0.00 | 1.88 | 1.88 | 82 | 1010.8 |
| 20260902232522 | 76 | 158 | 9.6 | 20.9 | 0.00 | 1.88 | 1.88 | 82 | 1011.0 |
| 20260902231522 | 76 | 180 | 13.0 | 26.1 | 0.00 | 1.88 | 1.88 | 81 | 1011.0 |
| 20260902230542 | 77 | 203 | 8.7 | 18.2 | 0.00 | 1.88 | 1.88 | 81 | 1010.8 |
| 20260902225541 | 77 | 180 | 7.8 | 17.4 | 0.00 | 1.88 | 1.88 | 81 | 1010.6 |
| 20260902224521 | 77 | 180 | 8.7 | 13.9 | 0.00 | 1.88 | 1.88 | 80 | 1010.3 |
| 20260902223521 | 78 | 158 | 7.0 | 13.9 | 0.00 | 1.88 | 1.88 | 79 | 1010.4 |
| 20260902222542 | 78 | 180 | 9.6 | 15.6 | 0.00 | 1.88 | 1.88 | 79 | 1010.4 |
| 20260902221521 | 79 | 158 | 8.7 | 12.2 | 0.00 | 1.88 | 1.88 | 78 | 1010.2 |
| 20260902220521 | 79 | 158 | 7.0 | 13.0 | 0.00 | 1.88 | 1.88 | 77 | 1010.6 |
| 20260902215521 | 80 | 158 | 6.1 | 11.3 | 0.00 | 1.88 | 1.88 | 76 | 1011.5 |
| 20260902214521 | 80 | 180 | 6.1 | 11.3 | 0.00 | 1.88 | 1.88 | 75 | 1012.1 |
| 20260902213521 | 80 | 158 | 7.8 | 11.3 | 0.00 | 1.88 | 1.88 | 75 | 1012.5 |
| 20260902212521 | 80 | 180 | 6.1 | 9.6 | 0.00 | 1.88 | 1.88 | 75 | 1012.5 |
| 20260902211521 | 81 | 158 | 4.3 | 10.4 | 0.00 | 1.88 | 1.88 | 75 | 1012.9 |
| 20260902210521 | 81 | 180 | 4.3 | 7.8 | 0.00 | 1.88 | 1.88 | 75 | 1012.8 |
| 20260902205521 | 82 | 180 | 6.1 | 11.3 | 0.00 | 1.88 | 1.88 | 73 | 1012.7 |
| 20260902204521 | 83 | 180 | 6.1 | 10.4 | 0.00 | 1.88 | 1.88 | 71 | 1012.7 |
| 20260902203541 | 83 | 180 | 6.1 | 11.3 | 0.00 | 1.88 | 1.88 | 72 | 1012.7 |
| 20260902202520 | 83 | 180 | 8.7 | 13.9 | 0.00 | 1.88 | 1.88 | 71 | 1012.8 |
| 20260902201541 | 82 | 203 | 8.7 | 15.6 | 0.00 | 1.88 | 1.88 | 71 | 1012.8 |
| 20260902200521 | 82 | 180 | 8.7 | 14.8 | 0.00 | 1.88 | 1.88 | 72 | 1012.5 |
| 20260902195522 | 83 | 180 | 11.3 | 16.5 | 0.00 | 1.88 | 1.88 | 71 | 1012.3 |
| 20260902194521 | 82 | 158 | 9.6 | 16.5 | 0.00 | 1.88 | 1.88 | 71 | 1012.4 |
| 20260902193520 | 83 | 180 | 8.7 | 12.2 | 0.00 | 1.88 | 1.88 | 70 | 1012.4 |
| 20260902192521 | 83 | 180 | 10.4 | 17.4 | 0.00 | 1.88 | 1.88 | 69 | 1012.5 |
| 20260902191521 | 83 | 180 | 8.7 | 13.0 | 0.00 | 1.88 | 1.88 | 69 | 1012.6 |
| 20260902190520 | 84 | 180 | 8.7 | 16.5 | 0.00 | 1.88 | 1.88 | 68 | 1012.8 |
| 20260902185520 | 84 | 158 | 9.6 | 13.9 | 0.00 | 1.88 | 1.88 | 67 | 1012.8 |
| 20260902184521 | 85 | 158 | 7.8 | 12.2 | 0.00 | 1.88 | 1.88 | 66 | 1013.1 |
| 20260902183540 | 84 | 180 | 7.0 | 14.8 | 0.00 | 1.88 | 1.88 | 65 | 1013.2 |
| 20260902182520 | 84 | 180 | 8.7 | 13.9 | 0.00 | 1.88 | 1.88 | 66 | 1013.4 |
| 20260902181520 | 84 | 158 | 7.0 | 14.8 | 0.00 | 1.88 | 1.88 | 65 | 1013.3 |
| 20260902180520 | 83 | 180 | 7.8 | 12.2 | 0.00 | 1.88 | 1.88 | 66 | 1013.2 |
| 20260902175521 | 83 | 203 | 6.1 | 12.2 | 0.00 | 1.88 | 1.88 | 68 | 1013.1 |
| 20260902174520 | 82 | 203 | 7.0 | 12.2 | 0.00 | 1.88 | 1.88 | 73 | 1013.3 |
| 20260902173520 | 81 | 158 | 9.6 | 14.8 | 0.00 | 1.88 | 1.88 | 73 | 1013.2 |
| 20260902172641 | 80 | 158 | 7.8 | 13.0 | 0.00 | 1.88 | 1.88 | 75 | 1013.0 |
| 20260902171520 | 79 | 180 | 8.7 | 13.9 | 0.00 | 1.88 | 1.88 | 76 | 1013.1 |
| 20260902170520 | 77 | 180 | 8.7 | 16.5 | 0.00 | 1.88 | 1.88 | 77 | 1013.4 |
| 20260902165600 | 77 | 180 | 10.4 | 15.6 | 0.00 | 1.88 | 1.88 | 81 | 1013.3 |
| 20260902164522 | 76 | 158 | 8.7 | 14.8 | 0.00 | 1.88 | 1.88 | 83 | 1013.2 |
| 20260902163520 | 74 | 180 | 7.8 | 12.2 | 0.01 | 1.88 | 1.88 | 87 | 1013.3 |
| 20260902162520 | 71 | 180 | 9.6 | 14.8 | 0.07 | 1.88 | 1.88 | 90 | 1013.5 |
| 20260902161520 | 69 | 180 | 7.0 | 11.3 | 0.26 | 1.88 | 1.88 | 91 | 1013.7 |
| 20260902160540 | 68 | 180 | 6.1 | 9.6 | 0.58 | 1.88 | 1.88 | 91 | 1014.2 |
| 20260902155520 | 68 | 158 | 7.8 | 13.0 | 1.09 | 1.88 | 1.88 | 92 | 1014.2 |
| 20260902154520 | 67 | 180 | 7.8 | 13.9 | 1.15 | 1.88 | 1.88 | 93 | 1014.7 |
| 20260902153520 | 68 | 158 | 8.7 | 12.2 | 1.23 | 1.87 | 1.87 | 93 | 1014.9 |
| 20260902152540 | 68 | 158 | 8.7 | 11.3 | 1.36 | 1.81 | 1.81 | 93 | 1015.8 |
| 20260902151520 | 68 | 203 | 8.7 | 13.9 | 1.43 | 1.62 | 1.62 | 92 | 1016.9 |
| 20260902151053 | 0 | 135 | 7.0 | 7.8 | 1.16 | 1.30 | 1.30 | 93 | |
| 20260902150021 | 69 | 180 | 7.0 | 10.4 | 1.17 | 1.22 | 1.22 | 93 | 1017.0 |
| 20260902145019 | 69 | 293 | 3.5 | 7.8 | 0.75 | 0.77 | 0.77 | 93 | 1017.7 |
| 20260902144040 | 69 | 248 | 1.7 | 2.6 | 0.68 | 0.69 | 0.69 | 93 | 1016.0 |
| 20260902143022 | 69 | 68 | 3.5 | 6.1 | 0.57 | 0.57 | 0.57 | 93 | 1015.1 |
| 20260902142042 | 70 | 225 | 0.9 | 2.6 | 0.29 | 0.29 | 0.29 | 93 | 1016.1 |
| 20260902141022 | 70 | 23 | 2.6 | 5.2 | 0.14 | 0.14 | 0.14 | 92 | 1015.4 |
| 20260902140021 | 70 | 338 | 2.6 | 4.3 | 0.05 | 0.05 | 0.05 | 92 | 1015.6 |
| 20260902135041 | 70 | 0.0 | 1.7 | 0.02 | 0.02 | 0.02 | 92 | 1014.9 | |
| 20260902134042 | 70 | 0.0 | 1.7 | 0.01 | 0.01 | 0.01 | 92 | 1014.5 | |
| 20260902133022 | 70 | 45 | 0.9 | 4.3 | 0.00 | 0.00 | 0.00 | 92 | 1014.8 |
| 20260902132021 | 70 | 0.0 | 1.7 | 0.00 | 0.00 | 0.00 | 92 | 1014.9 | |
| 20260902131021 | 70 | 68 | 1.7 | 4.3 | 0.00 | 0.00 | 0.00 | 93 | 1014.8 |
| 20260902130021 | 70 | 0.0 | 1.7 | 0.00 | 0.00 | 0.00 | 93 | 1014.6 | |
| 20260902125021 | 70 | 68 | 0.9 | 3.5 | 0.00 | 0.00 | 0.00 | 93 | 1014.4 |
| 20260902124021 | 70 | 68 | 0.9 | 2.6 | 0.00 | 0.00 | 0.00 | 93 | 1014.3 |
| 20260902123022 | 70 | 0.0 | 1.7 | 0.00 | 0.00 | 0.00 | 93 | 1014.5 | |
| 20260902122022 | 69 | 0.0 | 0.9 | 0.00 | 0.00 | 0.00 | 93 | 1014.6 | |
| 20260902121021 | 69 | 0.0 | 1.7 | 0.00 | 0.00 | 0.00 | 94 | 1014.2 |